Plattsburgh, NY

6:57 AM EST on November 13, 2019 (GMT -0500)
Plattsburgh International

Weather History for KPBG - October, 2019

Change the Weather History Date:

Wednesday, October 23, 2019

  Actual Average Record
Temperature  
Mean Temperature 56 °F 45 °F  
Max Temperature 63 °F 55 °F 73 °F (1954)
Min Temperature 48 °F 35 °F 26 °F (1969)
Degree Days  
Heating Degree Days 10 20  
Month to date heating degree days 354 374  
Since 1 July heating degree days 546 609  
Cooling Degree Days 0 0  
Month to date cooling degree days 0 0  
Year to date cooling degree days 406 345  
Growing Degree Days 6 (Base 50)    
Moisture  
Dew Point 45 °F    
Average Humidity 74    
Maximum Humidity 97    
Minimum Humidity 34    
Precipitation  
Precipitation 0.25 in - 1.27 in (1990)
Month to date precipitation 3.34 0.00  
Year to date precipitation 24.96  
Sea Level Pressure  
Sea Level Pressure 29.86 in    
Wind  
Wind Speed 3 mph ()    
Max Wind Speed 16 mph    
Max Gust Speed 28 mph    
Visibility 7.8 miles    
Events Fog , Rain    
T = Trace of Precipitation, MM = Missing Value Source: Averaged Metar Reports

Daily Weather History Graph

Daily Weather History Graph

Search for Another Location

Airport or City:

Astronomy

Oct. 23, 2019 Rise Set
Actual Time 7:19 AM EDT 5:56 PM EDT
Civil Twilight 6:49 AM EDT 6:26 PM EDT
Nautical Twilight 6:15 AM EDT 7:00 PM EDT
Astronomical Twilight 5:41 AM EDT 7:33 PM EDT
Moon 1:16 AM EDT (10/23) 4:01 PM EDT (10/23)
Length of Visible Light 11h 36m
Length of Day
10h 37m
Waning Crescent, 27% of the Moon is Illuminated
Oct 23
Waning Crescent
Oct 27
New
Nov 4
First Quarter
Nov 12
Full
Nov 19
Last Quarter

Hourly Weather History & Observations

Time (EDT) Temp. Dew Point Humidity Pressure Visibility Wind Dir Wind Speed Gust Speed Precip Events Conditions
12:53 AM 54.0 °F 51.1 °F 90% 29.80 in 3.0 mi Variable 4.6 mph - 0.03 in Rain Rain
1:53 AM 53.1 °F 52.0 °F 96% 29.79 in 5.0 mi South 4.6 mph - 0.09 in Rain Light Rain
2:53 AM 53.1 °F 52.0 °F 96% 29.79 in 5.0 mi SE 6.9 mph - 0.05 in Rain Rain
3:53 AM 53.1 °F 52.0 °F 96% 29.79 in 10.0 mi Calm Calm - 0.02 in Rain Light Rain
4:08 AM 53.1 °F 52.0 °F 96% 29.79 in 10.0 mi Calm Calm - 0.00 in   Overcast
4:49 AM 53.6 °F 51.8 °F 94% 29.80 in 10.0 mi South 4.6 mph - 0.01 in   Overcast
4:53 AM 53.1 °F 52.0 °F 96% 29.80 in 10.0 mi South 4.6 mph - 0.01 in Rain Light Rain
5:53 AM 52.0 °F 51.1 °F 97% 29.82 in 10.0 mi Calm Calm - 0.03 in Rain Light Rain
6:53 AM 52.0 °F 51.1 °F 97% 29.81 in 9.0 mi SW 3.5 mph - 0.02 in Rain Light Rain
7:25 AM 52.0 °F 50.0 °F 93% 29.81 in 1.8 mi SW 3.5 mph - 0.00 in   Mostly Cloudy
7:33 AM 51.1 °F 50.0 °F 96% 29.81 in 3.0 mi SSW 3.5 mph - 0.00 in   Mostly Cloudy
7:53 AM 51.1 °F 50.0 °F 96% 29.82 in 1.5 mi Calm Calm - 0.00 in   Mostly Cloudy
7:59 AM 50.0 °F 48.9 °F 96% 29.82 in 0.5 mi South 3.5 mph - N/A Fog Fog
8:15 AM 51.1 °F 50.0 °F 96% 29.82 in 1.0 mi Calm Calm - N/A   Partly Cloudy
8:18 AM 51.1 °F 50.0 °F 96% 29.82 in 3.0 mi Calm Calm - N/A   Clear
8:53 AM 55.9 °F 50.0 °F 80% 29.83 in 10.0 mi Calm Calm - N/A   Overcast
10:53 AM 59.0 °F 44.1 °F 58% 29.84 in 10.0 mi Variable 5.8 mph - N/A   Clear
11:53 AM 61.0 °F 41.0 °F 48% 29.83 in 10.0 mi Variable 5.8 mph - N/A   Partly Cloudy
12:53 PM 60.1 °F 39.9 °F 47% 29.83 in 10.0 mi WNW 5.8 mph - N/A   Mostly Cloudy
1:53 PM 60.1 °F 37.0 °F 42% 29.83 in 10.0 mi WSW 10.4 mph 18.4 mph N/A   Mostly Cloudy
2:53 PM 60.1 °F 37.0 °F 42% 29.84 in 10.0 mi West 5.8 mph - N/A   Overcast
3:53 PM 62.1 °F 36.0 °F 38% 29.87 in 10.0 mi Variable 5.8 mph - N/A   Mostly Cloudy
4:53 PM 60.1 °F 32.0 °F 35% 29.88 in 10.0 mi SW 8.1 mph 16.1 mph N/A   Mostly Cloudy
5:53 PM 57.0 °F 33.1 °F 40% 29.91 in 10.0 mi Variable 5.8 mph - N/A   Clear
6:53 PM 55.0 °F 37.9 °F 53% 29.95 in 10.0 mi Variable 4.6 mph 18.4 mph N/A   Clear
7:53 PM 53.1 °F 39.0 °F 59% 29.99 in 10.0 mi North - - N/A   Scattered Clouds
8:53 PM 52.0 °F 39.0 °F 61% 30.01 in 10.0 mi Calm Calm - N/A   Mostly Cloudy
9:53 PM 52.0 °F 37.9 °F 59% 30.03 in 10.0 mi SSW 4.6 mph - N/A   Overcast
10:53 PM 52.0 °F 39.0 °F 61% 30.04 in 10.0 mi Variable 4.6 mph - N/A   Overcast
11:53 PM 52.0 °F 39.0 °F 61% 30.05 in 10.0 mi SSW 4.6 mph - N/A   Overcast